Location: Lafig�re
(44.4503°N, 4.0357°E)
Time: 15:16:19
(UTC+00:00)

Transit 2A Rocket - Pass Details

Date: 29 January 2021
Orbit: 594 x 908 km, 66.7° (Epoch: 06 March)

Event Time Altitude Azimuth Distance (km) Brightness Sun altitude
Rises 12:30:44 0° 260° (W) 3,252 8.5 27.3°
Reaches altitude 10° 12:34:05 10° 281° (W) 2,259 7.5 27.2°
Maximum altitude 12:37:20 17° 320° (NW) 1,784 6.7 27.1°
Drops below altitude 10° 12:40:26 10° 0° (N) 2,135 6.9 27.0°
Sets 12:43:29 0° 22° (NNE) 2,993 7.5 26.9°
